This is the latest recevied weather packets stored in our database for station/object OK1FET-5. If no packets are shown the sender has not sent any weather packets the latest 10 day(s).
| Time | Temp. | Humidity | Pressure | Rain* | Wind** | Luminosity | Snow |
|---|---|---|---|---|---|---|---|
| 1777458924 | 18.89° C | 28% | 1027 hPa | - | - | - | - |
| 1777458039 | 18.33° C | 27% | 1027 hPa | - | - | - | - |
| 1777457744 | 18.33° C | 29% | 1026.9 hPa | - | - | - | - |
| 1777457449 | 18.33° C | 29% | 1027 hPa | - | - | - | - |
| 1777455679 | 17.78° C | 27% | 1027.1 hPa | - | - | - | - |
| 1777455385 | 17.78° C | 30% | 1026.9 hPa | - | - | - | - |
| 1777455090 | 17.78° C | 29% | 1026.9 hPa | - | - | - | - |
| 1777454795 | 18.33° C | 30% | 1026.9 hPa | - | - | - | - |
| 1777454499 | 18.33° C | 30% | 1027.1 hPa | - | - | - | - |
| 1777454205 | 18.89° C | 30% | 1027.1 hPa | - | - | - | - |
| 1777453909 | 18.33° C | 30% | 1027.2 hPa | - | - | - | - |
| 1777453614 | 18.33° C | 29% | 1027.2 hPa | - | - | - | - |
| 1777453320 | 18.89° C | 29% | 1027.1 hPa | - | - | - | - |
| 1777453024 | 19.44° C | 29% | 1027.1 hPa | - | - | - | - |
| 1777452729 | 19.44° C | 29% | 1027.2 hPa | - | - | - | - |
| 1777452434 | 18.89° C | 30% | 1027.3 hPa | - | - | - | - |
| 1777452140 | 18.33° C | 30% | 1027.2 hPa | - | - | - | - |
| 1777451845 | 17.78° C | 29% | 1027.2 hPa | - | - | - | - |
| 1777451550 | 17.78° C | 28% | 1027.2 hPa | - | - | - | - |
| 1777451255 | 17.78° C | 30% | 1027.2 hPa | - | - | - | - |
| 1777450960 | 17.22° C | 29% | 1027.2 hPa | - | - | - | - |
| 1777450665 | 16.11° C | 30% | 1027.2 hPa | - | - | - | - |
| 1777450371 | 16.11° C | 30% | 1027.2 hPa | - | - | - | - |
| 1777450076 | 16.11° C | 31% | 1027.3 hPa | - | - | - | - |
| 1777449781 | 15.56° C | 30% | 1027.3 hPa | - | - | - | - |
* Rain since midnight (hover to see other rain measurements)
** Current wind speed in m/s (hover to see current wind gust speed)